Find Starlink 31691

NORAD ID: 59856 Int'l Des: 2024-097 Owner: SPXS Country: US Constellation: starlink operational
LEOCIRCULAR

現在のビュー

3D地球を読み込み中...

About Starlink 31691

Starlink 31691 (NORAD 59856) is a starlink constellation satellite (v2 mini) launched May 23, 2024 by SPXS of US. It operates in LEO, CIRCULAR orbit with a mass of 730.00 kg.

次回通過

Passes for default location (London). Set your location on the main map for personalized predictions.

高度履歴

Loading altitude history...

軌道要素

1 59856U 24097X 26252.17788973 -.00001179 00000-0 -33343-4 0 9992
2 59856 43.0027 317.7037 0000645 294.6567 65.4217 15.27575127129989
Epoch: Sep 9, 2026 • Age: 5 hours

現在のステータス

高度 483.4 km
遠地点 / 近地点 N/A
速度 7.63 km/s
衛星直下点 25.48°N, 26.41°W
打ち上げ日 May 23, 2024
運用期間 2.2 years
タイプ internet

技術仕様

分類 Payload
質量 730.00 kg
乾燥質量 700.00 kg
総質量 730.00 kg
長さ 0.30 m
直径 4.10 m
スパン 29.00 m
形状 Box + pan
製造者 SPXS
バスタイプ Starlink V2M
フェーズステータス In Orbit
所有者/国 SPXS/US

Most Searched